COSMOS 1290

Satellite information

Favourite Embed

Satellite Type and Status

PAYLOADIN ORBIT

Key statistics

Satellite COSMOS 1290 at a glance.

Uptime

16206

Days in orbit

Revolutions

≈ 12.5

Per day

Orbit

LEO

Low Earth Orbit

Inclination

74.0

Latest

Satellite identification and parameters

Extended collection of information and parameters for COSMOS 1290.

Object identification

Identified? True

Debris? False

Object name: COSMOS 1290

International designator: 1981-074D

Object number (NORAD): 12639

Object ID (CCSDS): 12639

Country: COMMONWEALTH OF INDEPENDENT STATES (CIS)

Current information (Y/N): Y

RCS size: MEDIUM

Orbital parameters

Period: 114.94 minutes

Inclination: 74.0334 deg

SMA: 7830.811 km

Apoapsis: 1463.751 km

Periapsis: 1441.6 km

RAAN: 101.3917 deg

Eccentricy: 0.00141438

Argument of periapsis: 91.7127 deg

Mean anomaly: 341.653 deg

Mean motion: 12.52831558 rev/day

Mean motion (dot): -0.00000027 rev/day2

B* drag term: -0.000068497356 1/REarth

Two-line elements (TLE)

Creation date: Dec. 19, 2025, 2:08 a.m.

Reference frame: TEME

Reference center: EARTH

Epoch: Dec. 18, 2025, 5:54 p.m. UTC

TLE line 0: 0 COSMOS 1290

TLE line 1: 1 12639U 81074D 25352.74637944 -.00000027 00000-0 -68497-4 0 9991

TLE line 2: 2 12639 74.0334 101.3917 0014144 91.7127 341.6530 12.52831558 29066

Live tracking on map

Real-time ground track for satellite COSMOS 1290.

In-orbit conjunctions

There are no conjunctions computed for COSMOS 1290, at the moment. Check back to stay up to date, as we update our databases every day.

Go to all conjunctions

Associated space launch

Military communications satellites

COSMOS 1290 was lifted into orbit during the mission ‘Kosmos-3M | Strela-1M 217-224’, on board a Kosmos-3M space rocket.

The launch took place on Aug. 6, 1981, 11:49 a.m. from 132/2.

For more information about the launch, click the button.

Launch to space Kosmos-3M | Strela-1M 217-224
Kosmos-3M | Strela-1M 217-224

Agency: N/A

Status: Launch Successful

Launch date: Aug. 6, 1981, 11:49 a.m. UTC

Rocket: Kosmos-3M

Launch pad: 132/2

Location: Plesetsk Cosmodrome, Russian Federation

...

Latest news about this satellite

There are no fresh news available about this satellite. Check back as we update our databases every day.


Newsletter sign-up

Weekly statistics, charts and insights to help you stay on top of the space industry.